KC5DAQ-26 Weather Reports


Display with metric or nautical units.
time (UTC)temp
F
wind
direction
speed
MPH
gust
MPH
rain 1hr
in
rain 24hr
in
rain mn
in
humidity
%
barometer
mb
20260505122132 73 127 1.0 4.0 0.00 0.00 0.00 92 1012.1
20260505122032 73 127 2.0 4.0 0.00 0.00 0.00 92 1012.1
20260505121933 73 128 2.0 4.0 0.00 0.00 0.00 92 1012.1
20260505121832 73 31 1.0 4.0 0.00 0.00 0.00 92 1012.1
20260505121731 73 31 0.0 4.0 0.00 0.00 0.00 92 1012.0
20260505121631 73 31 1.0 4.0 0.00 0.00 0.00 92 1012.0
20260505121532 73 31 1.0 4.0 0.00 0.00 0.00 92 1011.9
20260505121433 73 31 1.0 4.0 0.00 0.00 0.00 92 1011.9
20260505121331 73 30 2.0 4.0 0.00 0.00 0.00 92 1011.9
20260505121233 73 30 2.0 4.0 0.00 0.00 0.00 92 1011.8
20260505121131 73 128 1.0 4.0 0.00 0.00 0.00 92 1011.8
20260505121030 73 130 1.0 4.0 0.00 0.00 0.00 92 1011.8
20260505120932 73 130 1.0 4.0 0.00 0.00 0.00 92 1011.7
20260505120832 73 259 1.0 4.0 0.00 0.00 0.00 92 1011.7
20260505120731 73 258 1.0 4.0 0.00 0.00 0.00 92 1011.7
20260505120632 73 259 1.0 4.0 0.00 0.00 0.00 92 1011.7
20260505120532 73 258 0.0 4.0 0.00 0.00 0.00 92 1011.7
20260505120432 73 247 1.0 4.0 0.00 0.00 0.00 92 1011.8
20260505120331 73 248 1.0 4.0 0.00 0.00 0.00 92 1011.7
20260505120229 73 250 1.0 4.0 0.00 0.00 0.00 92 1011.8
20260505120129 73 111 0.0 2.0 0.00 0.00 0.00 92 1011.7
20260505120026 73 111 1.0 2.0 0.00 0.00 0.00 92 1011.7
20260505115925 73 111 1.0 2.0 0.00 0.00 0.00 92 1011.7
20260505115825 73 123 1.0 2.0 0.00 0.00 0.00 92 1011.7
20260505115725 73 161 1.0 2.0 0.00 0.00 0.00 92 1011.6
20260505115625 73 124 0.0 2.0 0.00 0.00 0.00 92 1011.6
20260505115525 73 124 1.0 3.0 0.00 0.00 0.00 92 1011.6
20260505115424 73 124 1.0 3.0 0.00 0.00 0.00 92 1011.7
20260505115325 73 133 1.0 3.0 0.00 0.00 0.00 92 1011.6
20260505115225 73 87 1.0 3.0 0.00 0.00 0.00 92 1011.7
20260505115126 73 87 1.0 3.0 0.00 0.00 0.00 92 1011.8
20260505115026 73 89 1.0 3.0 0.00 0.00 0.00 92 1011.8
20260505114926 73 89 1.0 3.0 0.00 0.00 0.00 91 1011.8
20260505114825 73 89 1.0 3.0 0.00 0.00 0.00 91 1011.9
20260505114725 73 89 2.0 3.0 0.00 0.00 0.00 91 1011.9
20260505114624 73 89 2.0 3.0 0.00 0.00 0.00 91 1011.9
20260505114524 73 141 1.0 3.0 0.00 0.00 0.00 91 1012.0
20260505114424 73 209 0.0 3.0 0.00 0.00 0.00 91 1011.9
20260505114324 73 209 0.0 3.0 0.00 0.00 0.00 91 1012.0
20260505114226 73 209 1.0 3.0 0.00 0.00 0.00 91 1012.0
20260505114124 73 209 1.0 3.0 0.00 0.00 0.00 91 1012.1
20260505114026 73 209 1.0 3.0 0.00 0.00 0.00 91 1012.1
20260505113924 73 212 1.0 3.0 0.00 0.00 0.00 91 1012.1
20260505113824 73 212 1.0 3.0 0.00 0.00 0.00 91 1012.2
20260505113725 73 237 0.0 3.0 0.00 0.00 0.00 91 1012.1
20260505113624 73 237 0.0 3.0 0.00 0.00 0.00 91 1012.0
20260505113525 73 283 1.0 3.0 0.00 0.00 0.00 91 1012.1
20260505113424 73 282 1.0 3.0 0.00 0.00 0.00 91 1012.1
20260505113325 73 282 2.0 3.0 0.00 0.00 0.00 91 1012.1
20260505113224 73 97 1.0 3.0 0.00 0.00 0.00 91 1012.0
20260505113124 73 49 1.0 3.0 0.00 0.00 0.00 91 1012.0
20260505113025 73 16 2.0 4.0 0.00 0.00 0.00 91 1011.9
20260505112925 73 14 2.0 7.0 0.00 0.00 0.00 91 1011.9
20260505112824 73 157 2.0 7.0 0.00 0.00 0.00 91 1011.8
20260505112725 73 110 1.0 7.0 0.00 0.00 0.00 91 1011.8
20260505112627 73 110 1.0 7.0 0.00 0.00 0.00 91 1011.8
20260505112525 73 110 1.0 7.0 0.00 0.00 0.00 91 1011.7
20260505112426 73 14 1.0 7.0 0.00 0.00 0.00 91 1011.8
20260505112326 73 6 1.0 7.0 0.00 0.00 0.00 91 1011.9
20260505112224 73 6 2.0 7.0 0.00 0.00 0.00 91 1011.8
20260505112124 73 113 2.0 7.0 0.00 0.00 0.00 91 1011.9
20260505112024 73 213 2.0 7.0 0.00 0.00 0.00 91 1011.8
20260505111925 73 121 2.0 5.0 0.00 0.00 0.00 91 1011.8
20260505111824 73 231 2.0 7.0 0.00 0.00 0.00 91 1011.8
20260505111724 73 34 1.0 7.0 0.00 0.00 0.00 91 1011.7
20260505111625 73 38 2.0 7.0 0.00 0.00 0.00 91 1011.8
20260505111525 73 31 1.0 7.0 0.00 0.00 0.00 91 1011.7
20260505111424 73 314 2.0 7.0 0.00 0.00 0.00 91 1011.7
20260505111324 73 292 2.0 7.0 0.00 0.00 0.00 91 1011.7
20260505111223 73 144 1.0 7.0 0.00 0.00 0.00 91 1011.7
20260505111124 73 145 1.0 7.0 0.00 0.00 0.00 91 1011.7
20260505111023 73 145 2.0 7.0 0.00 0.00 0.00 91 1011.6
20260505110923 73 145 2.0 7.0 0.00 0.00 0.00 91 1011.6
20260505110824 73 82 1.0 6.0 0.00 0.00 0.00 91 1011.6
20260505110725 73 75 1.0 6.0 0.00 0.00 0.00 91 1011.6
20260505110625 73 137 1.0 6.0 0.00 0.00 0.00 91 1011.6
20260505110524 73 192 1.0 6.0 0.00 0.00 0.00 91 1011.7
20260505110424 73 192 1.0 6.0 0.00 0.00 0.00 91 1011.7
20260505110323 73 199 1.0 6.0 0.00 0.00 0.00 91 1011.7
20260505110226 73 203 2.0 6.0 0.00 0.00 0.00 91 1011.7
20260505110124 73 94 2.0 6.0 0.00 0.00 0.00 91 1011.7
20260505102205 72 121 1.0 4.0 0.00 0.00 0.00 91 1011.8
20260505102101 72 121 2.0 4.0 0.00 0.00 0.00 91 1011.8
20260505102006 72 166 2.0 4.0 0.00 0.00 0.00 91 1011.8
20260505101905 72 41 2.0 4.0 0.00 0.00 0.00 91 1011.7
20260505101803 72 130 1.0 4.0 0.00 0.00 0.00 91 1011.7
20260505101704 72 133 1.0 4.0 0.00 0.00 0.00 91 1011.8
20260505101602 72 133 2.0 4.0 0.00 0.00 0.00 91 1011.8
20260505101502 72 133 2.0 4.0 0.00 0.00 0.00 91 1011.9
20260505101405 72 186 1.0 3.0 0.00 0.00 0.00 91 1011.9
20260505101303 72 212 0.0 3.0 0.00 0.00 0.00 91 1011.9
20260505101202 72 212 1.0 3.0 0.00 0.00 0.00 91 1011.9
20260505101102 72 212 1.0 3.0 0.00 0.00 0.00 91 1011.8
20260505101004 72 212 1.0 3.0 0.00 0.00 0.00 91 1012.0
20260505100903 72 212 1.0 3.0 0.00 0.00 0.00 91 1011.9
20260505100802 72 210 1.0 3.0 0.00 0.00 0.00 91 1012.0
20260505100703 72 123 1.0 3.0 0.00 0.00 0.00 91 1011.9
20260505100558 72 190 1.0 3.0 0.00 0.00 0.00 91 1011.9
20260505100458 72 192 2.0 3.0 0.00 0.00 0.00 91 1011.9
20260505100355 72 213 2.0 4.0 0.00 0.00 0.00 91 1011.9
20260505100254 72 120 1.0 4.0 0.00 0.00 0.00 91 1011.9
20260505100154 72 118 1.0 4.0 0.00 0.00 0.00 91 1011.9
20260505100053 72 117 1.0 4.0 0.00 0.00 0.00 91 1011.9
20260505095950 72 118 1.0 4.0 0.00 0.00 0.00 91 1011.8
20260505095848 72 118 1.0 4.0 0.00 0.00 0.00 91 1011.9
20260505095746 72 99 1.0 4.0 0.00 0.00 0.00 91 1011.9
20260505095645 72 99 1.0 4.0 0.00 0.00 0.00 91 1011.9
20260505095543 72 94 2.0 4.0 0.00 0.00 0.00 91 1011.8
20260505095442 72 125 1.0 4.0 0.00 0.00 0.00 91 1011.8
20260505095340 72 13 0.0 3.0 0.00 0.00 0.00 91 1011.9
20260505095240 72 13 0.0 3.0 0.00 0.00 0.00 91 1011.8
20260505095138 72 13 1.0 3.0 0.00 0.00 0.00 91 1011.9
20260505095036 72 169 1.0 3.0 0.00 0.00 0.00 91 1011.9
20260505094934 72 138 1.0 2.0 0.00 0.00 0.00 91 1011.9
20260505094834 72 138 1.0 2.0 0.00 0.00 0.00 91 1011.8
20260505094730 72 138 0.0 3.0 0.00 0.00 0.00 91 1011.8
20260505094631 72 138 0.0 3.0 0.00 0.00 0.00 91 1011.9
20260505094532 72 138 1.0 3.0 0.00 0.00 0.00 91 1011.8
20260505094431 72 138 1.0 3.0 0.00 0.00 0.00 91 1011.9
20260505094332 72 151 1.0 3.0 0.00 0.00 0.00 91 1011.9
20260505094231 72 152 1.0 3.0 0.00 0.00 0.00 91 1011.9
20260505094132 72 152 1.0 3.0 0.00 0.00 0.00 91 1011.9
20260505094031 72 159 1.0 3.0 0.00 0.00 0.00 91 1011.9
20260505093932 72 164 1.0 3.0 0.00 0.00 0.00 91 1011.9
20260505093833 72 164 1.0 3.0 0.00 0.00 0.00 91 1011.9
20260505093731 72 38 1.0 3.0 0.00 0.00 0.00 91 1011.9
20260505093631 72 38 1.0 3.0 0.00 0.00 0.00 91 1011.9
20260505093533 72 125 1.0 3.0 0.00 0.00 0.00 91 1011.9
20260505093433 72 125 1.0 3.0 0.00 0.00 0.00 91 1011.9
20260505093328 72 125 1.0 3.0 0.00 0.00 0.00 91 1011.9
20260505093228 72 128 1.0 3.0 0.00 0.00 0.00 91 1011.9
20260505093128 72 121 1.0 3.0 0.00 0.00 0.00 91 1012.0
20260505093025 72 114 1.0 3.0 0.00 0.00 0.00 91 1011.9
20260505092921 72 185 0.0 3.0 0.00 0.00 0.00 91 1012.0
20260505092819 72 185 1.0 3.0 0.00 0.00 0.00 91 1011.9
20260505092720 72 185 1.0 3.0 0.00 0.00 0.00 91 1011.9
20260505092619 72 319 1.0 3.0 0.00 0.00 0.00 91 1012.0
20260505092520 72 309 1.0 2.0 0.00 0.00 0.00 91 1012.0
20260505092419 72 237 0.0 3.0 0.00 0.00 0.00 91 1012.0
20260505092319 72 269 0.0 3.0 0.00 0.00 0.00 91 1012.0
20260505092221 71 79 0.0 3.0 0.00 0.00 0.00 91 1012.1
20260505092120 71 79 0.0 3.0 0.00 0.00 0.00 91 1012.1
20260505092020 71 79 1.0 3.0 0.00 0.00 0.00 91 1012.0
20260505091919 71 58 0.0 3.0 0.00 0.00 0.00 91 1012.0
20260505091819 71 54 1.0 3.0 0.00 0.00 0.00 91 1012.0
20260505091720 71 54 1.0 3.0 0.00 0.00 0.00 91 1012.0
20260505091619 71 54 1.0 3.0 0.00 0.00 0.00 91 1012.0
20260505091522 71 54 1.0 3.0 0.00 0.00 0.00 91 1012.0
20260505091420 71 54 1.0 3.0 0.00 0.00 0.00 91 1012.0
20260505091320 71 54 2.0 3.0 0.00 0.00 0.00 91 1012.1
20260505091220 71 125 2.0 3.0 0.00 0.00 0.00 91 1012.0
20260505091120 71 125 1.0 3.0 0.00 0.00 0.00 91 1012.0
20260505091020 71 121 0.0 3.0 0.00 0.00 0.00 91 1012.1
20260505090920 71 121 0.0 3.0 0.00 0.00 0.00 91 1012.1
20260505090820 71 121 1.0 3.0 0.00 0.00 0.00 91 1012.1
20260505090719 71 121 1.0 3.0 0.00 0.00 0.00 91 1012.1
20260505090619 71 121 0.0 3.0 0.00 0.00 0.00 91 1012.1
20260505090519 71 123 1.0 3.0 0.00 0.00 0.00 91 1012.1
20260505090419 71 123 2.0 3.0 0.00 0.00 0.00 91 1012.1
20260505090320 71 123 0.0 2.0 0.00 0.00 0.00 91 1012.1
20260505090220 71 169 0.0 2.0 0.00 0.00 0.00 91 1012.1
20260505090120 71 169 0.0 2.0 0.00 0.00 0.00 91 1012.1
20260505090019 71 169 0.0 2.0 0.00 0.00 0.00 91 1012.2
20260505085920 71 169 0.0 2.0 0.00 0.00 0.00 91 1012.2
20260505085820 71 169 0.0 2.0 0.00 0.00 0.00 91 1012.2
20260505085712 71 169 0.0 2.0 0.00 0.00 0.00 91 1012.1
20260505085610 71 169 0.0 2.0 0.00 0.00 0.00 91 1012.1
20260505085505 71 169 1.0 2.0 0.00 0.00 0.00 91 1012.0
20260505085404 71 169 1.0 2.0 0.00 0.00 0.00 91 1012.1
20260505085304 71 171 1.0 2.0 0.00 0.00 0.00 91 1012.0
20260505085203 71 171 1.0 2.0 0.00 0.00 0.00 91 1012.1
20260505085103 71 171 1.0 3.0 0.00 0.00 0.00 91 1012.0
20260505085004 71 171 1.0 3.0 0.00 0.00 0.00 91 1012.0
20260505084902 71 171 1.0 3.0 0.00 0.00 0.00 91 1012.0
20260505084803 71 171 0.0 3.0 0.00 0.00 0.00 91 1012.0
20260505084703 71 171 0.0 3.0 0.00 0.00 0.00 91 1011.9
20260505084603 71 171 1.0 3.0 0.00 0.00 0.00 91 1012.0
20260505084502 71 171 1.0 3.0 0.00 0.00 0.00 91 1012.0
20260505084403 71 113 1.0 3.0 0.00 0.00 0.00 91 1012.0
20260505084302 71 113 1.0 3.0 0.00 0.00 0.00 91 1012.0
20260505084202 71 113 1.0 3.0 0.00 0.00 0.00 91 1012.0
20260505084102 71 114 1.0 3.0 0.00 0.00 0.00 91 1012.1
20260505084004 71 107 0.0 3.0 0.00 0.00 0.00 91 1012.1
20260505083903 71 107 0.0 3.0 0.00 0.00 0.00 91 1012.1
20260505083802 71 107 1.0 3.0 0.00 0.00 0.00 91 1012.1
20260505083704 71 135 1.0 3.0 0.00 0.00 0.00 91 1012.2
20260505083602 71 135 1.0 3.0 0.00 0.00 0.00 90 1012.3
20260505083502 71 116 0.0 1.0 0.00 0.00 0.00 90 1012.2
20260505083402 71 116 0.0 1.0 0.00 0.00 0.00 90 1012.2
20260505083302 71 37 0.0 1.0 0.00 0.00 0.00 90 1012.2
20260505083202 71 37 0.0 2.0 0.00 0.00 0.00 90 1012.2
20260505083103 71 37 0.0 2.0 0.00 0.00 0.00 90 1012.2
20260505083002 71 37 0.0 3.0 0.00 0.00 0.00 90 1012.3
20260505082901 71 314 0.0 3.0 0.00 0.00 0.00 90 1012.3
20260505082804 71 313 0.0 3.0 0.00 0.00 0.00 90 1012.3
20260505082703 71 313 0.0 3.0 0.00 0.00 0.00 90 1012.4
20260505082604 71 313 0.0 3.0 0.00 0.00 0.00 90 1012.4
20260505082502 71 313 0.0 3.0 0.00 0.00 0.00 90 1012.4
20260505082404 71 313 0.0 3.0 0.00 0.00 0.00 90 1012.4
20260505082304 71 313 0.0 3.0 0.00 0.00 0.00 90 1012.4
20260505082202 71 313 1.0 3.0 0.00 0.00 0.00 90 1012.4
20260505082103 71 313 1.0 4.0 0.00 0.00 0.00 90 1012.3
20260505082002 71 179 1.0 4.0 0.00 0.00 0.00 90 1012.3
20260505081903 71 193 1.0 4.0 0.00 0.00 0.00 90 1012.3
20260505081802 71 197 1.0 4.0 0.00 0.00 0.00 90 1012.4
20260505081703 71 197 1.0 4.0 0.00 0.00 0.00 90 1012.4
20260505081602 71 227 1.0 4.0 0.00 0.00 0.00 90 1012.4
20260505081502 71 227 1.0 4.0 0.00 0.00 0.00 90 1012.4
20260505081404 71 257 0.0 4.0 0.00 0.00 0.00 90 1012.5
20260505081304 71 259 1.0 4.0 0.00 0.00 0.00 90 1012.5
20260505081202 71 258 1.0 4.0 0.00 0.00 0.00 90 1012.5
20260505081102 71 272 1.0 4.0 0.00 0.00 0.00 90 1012.5
20260505081004 71 134 1.0 3.0 0.00 0.00 0.00 90 1012.4
20260505080902 71 134 1.0 3.0 0.00 0.00 0.00 90 1012.5
20260505080802 71 138 1.0 3.0 0.00 0.00 0.00 90 1012.5
20260505080702 71 138 1.0 3.0 0.00 0.00 0.00 90 1012.5
20260505080603 71 138 1.0 3.0 0.00 0.00 0.00 90 1012.4
20260505080505 71 137 1.0 3.0 0.00 0.00 0.00 90 1012.4
20260505080404 71 137 1.0 3.0 0.00 0.00 0.00 90 1012.4
20260505080303 71 138 1.0 3.0 0.00 0.00 0.00 90 1012.4
20260505080203 71 206 0.0 3.0 0.00 0.00 0.00 90 1012.4
20260505080103 71 206 1.0 3.0 0.00 0.00 0.00 90 1012.5
20260505080004 71 206 1.0 3.0 0.00 0.00 0.00 90 1012.5
20260505075903 71 199 1.0 3.0 0.00 0.00 0.00 90 1012.5
20260505075803 71 99 1.0 3.0 0.00 0.00 0.00 90 1012.4
20260505075704 71 99 1.0 3.0 0.00 0.00 0.00 90 1012.5
20260505075603 71 99 1.0 3.0 0.00 0.00 0.00 90 1012.5
20260505075500 71 103 1.0 3.0 0.00 0.00 0.00 90 1012.5
20260505075359 71 103 1.0 4.0 0.00 0.00 0.00 90 1012.5
20260505075258 71 87 1.0 4.0 0.00 0.00 0.00 90 1012.6
20260505075155 71 337 1.0 4.0 0.00 0.00 0.00 90 1012.6
20260505075054 71 337 1.0 4.0 0.00 0.00 0.00 90 1012.6
20260505074954 71 202 1.0 4.0 0.00 0.00 0.00 90 1012.6
20260505074852 71 202 1.0 4.0 0.00 0.00 0.00 89 1012.6
20260505074749 71 202 1.0 4.0 0.00 0.00 0.00 89 1012.6
20260505074648 71 127 1.0 4.0 0.00 0.00 0.00 89 1012.6
20260505074545 71 134 2.0 4.0 0.00 0.00 0.00 89 1012.6
20260505074446 71 134 2.0 6.0 0.00 0.00 0.00 89 1012.6
20260505074345 71 172 2.0 6.0 0.00 0.00 0.00 89 1012.5
20260505074242 71 164 1.0 6.0 0.00 0.00 0.00 89 1012.5
20260505074141 71 164 1.0 6.0 0.00 0.00 0.00 89 1012.4
20260505074039 71 166 1.0 6.0 0.00 0.00 0.00 89 1012.5
20260505073937 71 161 1.0 6.0 0.00 0.00 0.00 89 1012.5
20260505073837 71 144 1.0 6.0 0.00 0.00 0.00 89 1012.5
20260505073735 71 144 1.0 6.0 0.00 0.00 0.00 89 1012.6
20260505073633 71 144 2.0 6.0 0.00 0.00 0.00 89 1012.6
20260505073531 71 138 2.0 4.0 0.00 0.00 0.00 89 1012.5
20260505073431 71 120 1.0 3.0 0.00 0.00 0.00 89 1012.6
20260505073331 71 121 1.0 3.0 0.00 0.00 0.00 89 1012.6
20260505073234 71 121 1.0 3.0 0.00 0.00 0.00 89 1012.6
20260505073132 71 121 1.0 4.0 0.00 0.00 0.00 89 1012.6
20260505073032 71 121 1.0 4.0 0.00 0.00 0.00 89 1012.7
20260505072932 71 124 1.0 4.0 0.00 0.00 0.00 89 1012.7
20260505072833 71 127 1.0 4.0 0.00 0.00 0.00 89 1012.7
20260505072731 71 128 1.0 4.0 0.00 0.00 0.00 89 1012.7
20260505072630 71 131 1.0 4.0 0.00 0.00 0.00 89 1012.7
20260505072528 71 131 2.0 4.0 0.00 0.00 0.00 89 1012.8
20260505072427 71 133 1.0 4.0 0.00 0.00 0.00 89 1012.8
20260505072324 71 137 2.0 4.0 0.00 0.00 0.00 89 1012.8
20260505072223 71 144 3.0 4.0 0.00 0.00 0.00 89 1012.8
20260505072121 71 144 2.0 4.0 0.00 0.00 0.00 89 1012.8
20260505072020 71 248 1.0 4.0 0.00 0.00 0.00 89 1012.8
20260505071919 71 245 1.0 4.0 0.00 0.00 0.00 89 1012.8
20260505071818 71 244 1.0 4.0 0.00 0.00 0.00 89 1012.9
20260505071717 71 309 1.0 4.0 0.00 0.00 0.00 89 1012.8
20260505071617 71 140 1.0 4.0 0.00 0.00 0.00 89 1012.9
20260505071518 71 117 2.0 4.0 0.00 0.00 0.00 89 1012.9
20260505071416 71 117 2.0 4.0 0.00 0.00 0.00 89 1012.8
20260505071316 71 120 2.0 4.0 0.00 0.00 0.00 89 1012.8
20260505071216 71 123 2.0 5.0 0.00 0.00 0.00 89 1012.9
20260505071117 71 289 2.0 5.0 0.00 0.00 0.00 89 1012.8
20260505071018 71 93 1.0 5.0 0.00 0.00 0.00 89 1012.8
20260505070917 71 92 2.0 5.0 0.00 0.00 0.00 89 1012.8
20260505070817 71 111 2.0 5.0 0.00 0.00 0.00 89 1012.8
20260505070717 71 164 1.0 5.0 0.00 0.00 0.00 89 1012.9
20260505070616 71 155 1.0 5.0 0.00 0.00 0.00 89 1012.8
20260505070517 71 155 1.0 5.0 0.00 0.00 0.00 89 1012.8
20260505070416 71 159 2.0 5.0 0.00 0.00 0.00 89 1012.8
20260505070317 71 148 1.0 5.0 0.00 0.00 0.00 89 1012.8
20260505070217 71 269 1.0 4.0 0.00 0.00 0.00 89 1012.9
20260505070117 71 271 2.0 4.0 0.00 0.00 0.00 89 1012.9
20260505070017 71 28 1.0 3.0 0.00 0.00 0.00 89 1012.9
20260505065916 71 78 1.0 3.0 0.00 0.00 0.00 89 1012.9
20260505065817 71 45 1.0 3.0 0.00 0.00 0.00 89 1012.9
20260505065716 71 104 1.0 3.0 0.00 0.00 0.00 89 1012.8
20260505065616 71 6 1.0 3.0 0.00 0.00 0.00 89 1012.9
20260505065516 71 31 2.0 5.0 0.00 0.00 0.00 89 1012.9
20260505065418 71 31 2.0 5.0 0.00 0.00 0.00 88 1012.9
20260505065316 71 4 2.0 5.0 0.00 0.00 0.00 88 1012.9
20260505065216 71 172 1.0 5.0 0.00 0.00 0.00 88 1012.9
20260505065118 71 117 1.0 5.0 0.00 0.00 0.00 88 1012.9
20260505065017 71 118 1.0 5.0 0.00 0.00 0.00 88 1012.9
20260505064916 71 118 1.0 5.0 0.00 0.00 0.00 88 1013.0
20260505064816 71 118 1.0 5.0 0.00 0.00 0.00 88 1013.0
20260505064717 71 118 2.0 5.0 0.00 0.00 0.00 88 1013.0
20260505064617 71 118 2.0 5.0 0.00 0.00 0.00 88 1013.0
20260505064516 71 73 1.0 3.0 0.00 0.00 0.00 88 1013.1
20260505064418 71 78 1.0 3.0 0.00 0.00 0.00 88 1013.1
20260505064315 71 144 1.0 4.0 0.00 0.00 0.00 88 1013.1
20260505064216 71 144 1.0 4.0 0.00 0.00 0.00 88 1013.1
20260505064118 71 144 1.0 4.0 0.00 0.00 0.00 88 1013.1
20260505064017 71 144 0.0 4.0 0.00 0.00 0.00 88 1013.2
20260505063916 71 155 0.0 4.0 0.00 0.00 0.00 88 1013.2
20260505063816 71 155 1.0 4.0 0.00 0.00 0.00 88 1013.2
20260505063716 71 155 1.0 4.0 0.00 0.00 0.00 88 1013.2
20260505063616 71 157 1.0 4.0 0.00 0.00 0.00 88 1013.2
20260505063516 71 173 2.0 4.0 0.00 0.00 0.00 88 1013.1
20260505063416 71 257 3.0 4.0 0.00 0.00 0.00 88 1013.2
20260505063317 71 124 2.0 4.0 0.00 0.00 0.00 88 1013.2
20260505063215 71 351 1.0 3.0 0.00 0.00 0.00 88 1013.3
20260505063115 71 128 1.0 3.0 0.00 0.00 0.00 88 1013.4
20260505063017 71 158 2.0 3.0 0.00 0.00 0.00 88 1013.4
20260505062915 71 133 2.0 3.0 0.00 0.00 0.00 88 1013.3
20260505062816 71 220 1.0 3.0 0.00 0.00 0.00 88 1013.3
20260505062716 71 111 0.0 2.0 0.00 0.00 0.00 88 1013.3
20260505062618 71 111 0.0 3.0 0.00 0.00 0.00 88 1013.3
20260505062516 71 111 0.0 5.0 0.00 0.00 0.00 88 1013.3
20260505062415 71 113 0.0 5.0 0.00 0.00 0.00 88 1013.4
20260505062316 71 113 1.0 5.0 0.00 0.00 0.00 88 1013.3
20260505062216 71 111 1.0 5.0 0.00 0.00 0.00 88 1013.4
20260505062115 71 113 1.0 5.0 0.00 0.00 0.00 88 1013.4
20260505062015 71 96 0.0 5.0 0.00 0.00 0.00 88 1013.4
20260505061916 71 96 0.0 5.0 0.00 0.00 0.00 88 1013.5
20260505061815 71 96 1.0 5.0 0.00 0.00 0.00 88 1013.5
20260505061715 71 96 2.0 5.0 0.00 0.00 0.00 88 1013.5
20260505061616 71 124 2.0 5.0 0.00 0.00 0.00 88 1013.5
20260505061516 71 299 2.0 3.0 0.00 0.00 0.00 88 1013.5
20260505061416 71 303 1.0 3.0 0.00 0.00 0.00 88 1013.5
20260505061316 71 154 1.0 3.0 0.00 0.00 0.00 88 1013.6
20260505061216 71 161 1.0 3.0 0.00 0.00 0.00 88 1013.5
20260505061116 71 166 1.0 3.0 0.00 0.00 0.00 88 1013.6
20260505061016 71 183 1.0 3.0 0.00 0.00 0.00 88 1013.6
20260505060916 71 116 2.0 3.0 0.00 0.00 0.00 88 1013.6
20260505060815 71 118 1.0 3.0 0.00 0.00 0.00 87 1013.5
20260505060716 71 116 0.0 3.0 0.00 0.00 0.00 87 1013.5
20260505060616 71 118 1.0 3.0 0.00 0.00 0.00 87 1013.5
20260505060515 71 118 2.0 4.0 0.00 0.00 0.00 87 1013.6
20260505060414 71 38 1.0 4.0 0.00 0.00 0.00 88 1013.5
20260505060315 71 34 1.0 4.0 0.00 0.00 0.00 88 1013.5
20260505060217 71 30 1.0 4.0 0.00 0.00 0.00 88 1013.6
20260505060115 71 30 1.0 4.0 0.00 0.00 0.00 87 1013.5
20260505060016 71 171 1.0 5.0 0.00 0.00 0.00 87 1013.6
20260505055916 71 179 1.0 5.0 0.00 0.00 0.00 87 1013.7
20260505055816 71 62 1.0 5.0 0.00 0.00 0.00 88 1013.7
20260505055716 71 62 2.0 5.0 0.00 0.00 0.00 87 1013.6
20260505055617 71 149 2.0 5.0 0.00 0.00 0.00 87 1013.6
20260505055517 71 173 1.0 5.0 0.00 0.00 0.00 87 1013.6
20260505055416 71 130 1.0 5.0 0.00 0.00 0.00 87 1013.5
20260505055313 71 121 1.0 5.0 0.00 0.00 0.00 87 1013.5
20260505055215 71 87 1.0 5.0 0.00 0.00 0.00 87 1013.5
20260505055115 71 85 2.0 5.0 0.00 0.00 0.00 87 1013.5
20260505055015 71 107 2.0 5.0 0.00 0.00 0.00 87 1013.5
20260505054914 71 0 1.0 4.0 0.00 0.00 0.00 87 1013.6
20260505054816 71 0 2.0 4.0 0.00 0.00 0.00 87 1013.6
20260505054715 71 79 1.0 4.0 0.00 0.00 0.00 87 1013.7
20260505054614 71 333 1.0 4.0 0.00 0.00 0.00 87 1013.7
20260505054515 71 313 1.0 4.0 0.00 0.00 0.00 87 1013.6
20260505054415 71 114 1.0 4.0 0.00 0.00 0.00 87 1013.7
20260505054315 71 114 1.0 4.0 0.00 0.00 0.00 87 1013.8
20260505054215 71 120 1.0 4.0 0.00 0.00 0.00 87 1013.7
20260505054115 71 120 1.0 4.0 0.00 0.00 0.00 87 1013.7
20260505054015 71 123 2.0 4.0 0.00 0.00 0.00 87 1013.7
20260505053915 71 138 1.0 4.0 0.00 0.00 0.00 87 1013.6
20260505053816 71 109 0.0 3.0 0.00 0.00 0.00 87 1013.7
20260505053715 71 0 0.0 3.0 0.00 0.00 0.00 87 1013.8
20260505053615 71 0 1.0 3.0 0.00 0.00 0.00 87 1013.7
20260505053514 71 0 2.0 3.0 0.00 0.00 0.00 87 1013.8
20260505053417 71 314 1.0 3.0 0.00 0.00 0.00 87 1013.8
20260505053314 71 121 0.0 2.0 0.00 0.00 0.00 87 1013.9
20260505053214 71 121 1.0 5.0 0.00 0.00 0.00 87 1013.9
20260505053115 71 121 0.0 5.0 0.00 0.00 0.00 87 1013.9
20260505053015 71 121 1.0 5.0 0.00 0.00 0.00 87 1014.0
20260505052914 71 121 1.0 5.0 0.00 0.00 0.00 87 1014.0
20260505052815 71 121 1.0 5.0 0.00 0.00 0.00 87 1014.0
20260505052717 71 123 1.0 5.0 0.00 0.00 0.00 87 1013.8
20260505052614 71 123 1.0 5.0 0.00 0.00 0.00 87 1013.9
20260505052514 71 123 1.0 5.0 0.00 0.00 0.00 87 1013.9
20260505052415 71 240 2.0 5.0 0.00 0.00 0.00 87 1014.0
20260505052314 71 240 1.0 5.0 0.00 0.00 0.00 87 1013.9
20260505052215 71 154 0.0 3.0 0.00 0.00 0.00 87 1013.9
20260505052115 71 154 1.0 3.0 0.00 0.00 0.00 87 1013.9
20260505052016 71 154 2.0 3.0 0.00 0.00 0.00 87 1013.9
20260505051916 71 127 1.0 3.0 0.00 0.00 0.00 87 1014.0
20260505051816 71 128 1.0 3.0 0.00 0.00 0.00 87 1013.9
20260505051716 71 128 1.0 3.0 0.00 0.00 0.00 87 1013.8
20260505051614 71 128 1.0 3.0 0.00 0.00 0.00 87 1013.9
20260505051514 71 134 1.0 2.0 0.00 0.00 0.00 87 1013.9
20260505051414 71 134 1.0 2.0 0.00 0.00 0.00 87 1013.8
20260505051315 71 134 1.0 2.0 0.00 0.00 0.00 86 1013.9
20260505051216 71 147 1.0 2.0 0.00 0.00 0.00 86 1013.9
20260505051115 71 149 1.0 3.0 0.00 0.00 0.00 86 1014.0
20260505051015 71 152 1.0 3.0 0.00 0.00 0.00 86 1013.9
20260505050915 71 154 1.0 3.0 0.00 0.00 0.00 86 1013.9
20260505050813 71 155 1.0 3.0 0.00 0.00 0.00 86 1013.9
20260505050714 71 323 0.0 3.0 0.00 0.00 0.00 86 1013.8
20260505050613 71 323 0.0 3.0 0.00 0.00 0.00 86 1013.9
20260505050515 71 323 0.0 3.0 0.00 0.00 0.00 85 1013.8
20260505050414 71 321 0.0 3.0 0.00 0.00 0.00 85 1013.9
20260505050316 71 321 1.0 3.0 0.00 0.00 0.00 85 1013.8
20260505050213 71 321 2.0 3.0 0.00 0.00 0.00 85 1013.9
20260505050113 71 134 1.0 3.0 0.00 0.00 0.00 85 1014.0
20260505041702 72 140 1.0 4.0 0.00 0.00 0.00 83 1013.8
20260505041602 72 141 1.0 4.0 0.00 0.00 0.00 83 1013.8
20260505041503 72 141 2.0 4.0 0.00 0.00 0.00 83 1013.9
20260505041404 72 138 1.0 3.0 0.00 0.00 0.00 83 1013.9
20260505041302 72 140 1.0 3.0 0.00 0.00 0.00 83 1013.9
20260505041203 72 140 1.0 4.0 0.00 0.00 0.00 83 1014.0
20260505041103 72 144 1.0 4.0 0.00 0.00 0.00 83 1014.1
20260505041001 72 144 1.0 4.0 0.00 0.00 0.00 83 1014.2
20260505040903 72 162 1.0 4.0 0.00 0.00 0.00 83 1014.2
20260505040803 72 45 1.0 4.0 0.00 0.00 0.00 83 1014.2
20260505040703 72 54 1.0 4.0 0.00 0.00 0.00 83 1014.2
20260505040602 72 44 1.0 4.0 0.00 0.00 0.00 83 1014.3
20260505040503 72 44 1.0 4.0 0.00 0.00 0.00 82 1014.2
20260505040403 73 142 1.0 5.0 0.00 0.00 0.00 82 1014.3
20260505040302 73 144 2.0 5.0 0.00 0.00 0.00 82 1014.3
20260505040202 73 182 2.0 5.0 0.00 0.00 0.00 82 1014.2
20260505040103 73 104 2.0 5.0 0.00 0.00 0.00 82 1014.3
20260505040003 73 0 1.0 5.0 0.00 0.00 0.00 82 1014.1
20260505035901 73 0 2.0 5.0 0.00 0.00 0.00 82 1014.2
20260505035802 73 348 2.0 5.0 0.00 0.00 0.00 82 1014.2
20260505035703 73 104 1.0 5.0 0.00 0.00 0.00 82 1014.1
20260505035602 73 106 1.0 5.0 0.00 0.00 0.00 82 1014.2
20260505035502 73 106 2.0 5.0 0.00 0.00 0.00 82 1014.1
20260505035404 73 37 2.0 4.0 0.00 0.00 0.00 82 1014.1
20260505035304 73 103 2.0 4.0 0.00 0.00 0.00 82 1014.2
20260505035203 73 104 2.0 4.0 0.00 0.00 0.00 82 1014.1
20260505035103 73 27 2.0 4.0 0.00 0.00 0.00 82 1014.2
20260505035004 73 25 2.0 7.0 0.00 0.00 0.00 82 1014.3
20260505034904 73 238 1.0 7.0 0.00 0.00 0.00 82 1014.4
20260505034802 73 238 1.0 7.0 0.00 0.00 0.00 81 1014.4
20260505034703 73 124 2.0 7.0 0.00 0.00 0.00 81 1014.3
20260505034602 73 38 2.0 7.0 0.00 0.00 0.00 81 1014.4
20260505034503 73 71 1.0 7.0 0.00 0.00 0.00 81 1014.4
20260505034402 73 68 2.0 7.0 0.00 0.00 0.00 81 1014.5
20260505034303 73 66 2.0 7.0 0.00 0.00 0.00 81 1014.5
20260505034203 73 192 2.0 7.0 0.00 0.00 0.00 81 1014.3
20260505034103 73 109 2.0 7.0 0.00 0.00 0.00 81 1014.5
20260505034002 73 24 1.0 6.0 0.00 0.00 0.00 81 1014.5
20260505033901 73 24 2.0 6.0 0.00 0.00 0.00 81 1014.5
20260505033802 73 175 2.0 6.0 0.00 0.00 0.00 81 1014.5
20260505033700 73 166 2.0 6.0 0.00 0.00 0.00 81 1014.5
20260505033559 73 209 3.0 6.0 0.00 0.00 0.00 81 1014.5
20260505033457 73 351 2.0 6.0 0.00 0.00 0.00 81 1014.4
20260505033359 73 283 2.0 7.0 0.00 0.00 0.00 81 1014.3
20260505033259 73 307 2.0 7.0 0.00 0.00 0.00 81 1014.4
20260505033156 73 125 1.0 9.0 0.00 0.00 0.00 81 1014.4
20260505033054 73 125 3.0 9.0 0.00 0.00 0.00 81 1014.4
20260505032939 73 125 2.0 9.0 0.00 0.00 0.00 81 1014.3
20260505032837 74 80 1.0 9.0 0.00 0.00 0.00 81 1014.3
20260505032737 73 80 2.0 9.0 0.00 0.00 0.00 81 1014.3
20260505032634 74 55 2.0 9.0 0.00 0.00 0.00 81 1014.3
20260505032533 74 92 2.0 9.0 0.00 0.00 0.00 81 1014.3
20260505032431 73 14 3.0 9.0 0.00 0.00 0.00 81 1014.2
20260505032330 74 78 3.0 9.0 0.00 0.00 0.00 81 1014.2
20260505032233 73 111 2.0 7.0 0.00 0.00 0.00 81 1014.3
20260505032131 73 83 1.0 7.0 0.00 0.00 0.00 81 1014.2
20260505032033 73 127 2.0 7.0 0.00 0.00 0.00 81 1014.2
20260505031931 73 131 2.0 7.0 0.00 0.00 0.00 81 1014.3
20260505031832 73 109 3.0 7.0 0.00 0.00 0.00 81 1014.2
20260505031733 73 111 3.0 7.0 0.00 0.00 0.00 81 1014.2
20260505031630 73 120 3.0 7.0 0.00 0.00 0.00 81 1014.2
20260505031532 74 76 3.0 7.0 0.00 0.00 0.00 81 1014.2
20260505031431 73 330 3.0 7.0 0.00 0.00 0.00 81 1014.1
20260505031332 73 128 3.0 7.0 0.00 0.00 0.00 81 1014.3
20260505031233 73 85 2.0 7.0 0.00 0.00 0.00 81 1014.2
20260505031131 73 75 1.0 7.0 0.00 0.00 0.00 81 1014.2
20260505031031 73 61 2.0 7.0 0.00 0.00 0.00 81 1014.3
20260505030931 73 61 2.0 9.0 0.00 0.00 0.00 81 1014.3
20260505030831 73 25 1.0 9.0 0.00 0.00 0.00 81 1014.3
20260505030732 73 11 1.0 9.0 0.00 0.00 0.00 81 1014.3
20260505030631 73 10 1.0 9.0 0.00 0.00 0.00 81 1014.2
20260505030533 73 130 2.0 9.0 0.00 0.00 0.00 80 1014.1
20260505030432 73 130 2.0 9.0 0.00 0.00 0.00 80 1014.1
20260505030332 74 131 2.0 9.0 0.00 0.00 0.00 80 1014.1
20260505030231 73 89 2.0 9.0 0.00 0.00 0.00 80 1014.2
20260505030131 73 28 3.0 9.0 0.00 0.00 0.00 80 1014.2
20260505030032 73 148 2.0 9.0 0.00 0.00 0.00 81 1014.2
20260505025930 73 350 1.0 5.0 0.00 0.00 0.00 81 1014.3
20260505025832 73 0 2.0 5.0 0.00 0.00 0.00 81 1014.2
20260505025733 73 117 1.0 5.0 0.00 0.00 0.00 81 1014.2
20260505025621 73 121 1.0 5.0 0.00 0.00 0.00 81 1014.2
20260505025519 73 121 2.0 6.0 0.00 0.00 0.00 81 1014.2
20260505025418 73 140 2.0 6.0 0.00 0.00 0.00 81 1014.2
20260505025314 73 159 2.0 6.0 0.00 0.00 0.00 81 1014.2
20260505025213 73 172 1.0 6.0 0.00 0.00 0.00 81 1014.3
20260505025111 73 111 1.0 6.0 0.00 0.00 0.00 81 1014.4
20260505025011 73 130 2.0 6.0 0.00 0.00 0.00 81 1014.3
20260505024909 73 138 1.0 6.0 0.00 0.00 0.00 81 1014.4
20260505024810 73 137 1.0 6.0 0.00 0.00 0.00 81 1014.3
20260505024710 73 137 2.0 6.0 0.00 0.00 0.00 81 1014.4
20260505024609 73 137 2.0 6.0 0.00 0.00 0.00 81 1014.3
20260505024508 73 89 1.0 7.0 0.00 0.00 0.00 81 1014.3
20260505024408 73 86 2.0 7.0 0.00 0.00 0.00 81 1014.3
20260505024311 73 102 2.0 7.0 0.00 0.00 0.00 81 1014.3
20260505024209 73 89 1.0 7.0 0.00 0.00 0.00 81 1014.2
20260505024109 73 54 2.0 7.0 0.00 0.00 0.00 81 1014.3
20260505024008 73 158 1.0 7.0 0.00 0.00 0.00 81 1014.2
20260505023909 73 220 1.0 7.0 0.00 0.00 0.00 81 1014.3
20260505023809 73 106 2.0 7.0 0.00 0.00 0.00 81 1014.4
20260505023708 73 106 2.0 7.0 0.00 0.00 0.00 80 1014.4
20260505023609 73 106 2.0 7.0 0.00 0.00 0.00 80 1014.3
20260505023509 73 0 2.0 5.0 0.00 0.00 0.00 80 1014.3
20260505023408 73 23 2.0 5.0 0.00 0.00 0.00 80 1014.2
20260505023310 73 123 2.0 5.0 0.00 0.00 0.00 80 1014.2
20260505023208 73 113 2.0 5.0 0.00 0.00 0.00 80 1014.2
20260505023108 73 289 2.0 5.0 0.00 0.00 0.00 80 1014.2
20260505023008 73 117 2.0 5.0 0.00 0.00 0.00 80 1014.3
20260505022911 73 331 2.0 5.0 0.00 0.00 0.00 80 1014.2
20260505022809 73 324 3.0 5.0 0.00 0.00 0.00 80 1014.2
20260505022709 73 299 2.0 5.0 0.00 0.00 0.00 80 1014.1
20260505022610 74 149 1.0 4.0 0.00 0.00 0.00 80 1014.2
20260505022508 74 172 1.0 5.0 0.00 0.00 0.00 80 1014.2
20260505022409 74 172 2.0 5.0 0.00 0.00 0.00 80 1014.2
20260505022309 74 0 2.0 5.0 0.00 0.00 0.00 80 1014.1
20260505022210 74 0 2.0 5.0 0.00 0.00 0.00 80 1014.1
20260505022109 74 90 1.0 5.0 0.00 0.00 0.00 80 1014.1
20260505022008 74 90 2.0 5.0 0.00 0.00 0.00 80 1014.0
20260505021910 74 171 2.0 5.0 0.00 0.00 0.00 80 1014.1
20260505021808 74 313 2.0 5.0 0.00 0.00 0.00 80 1014.1
20260505021708 74 161 2.0 5.0 0.00 0.00 0.00 79 1014.1
20260505021608 74 162 3.0 5.0 0.00 0.00 0.00 79 1014.0
20260505021509 74 254 2.0 5.0 0.00 0.00 0.00 79 1014.1
20260505021409 74 82 2.0 6.0 0.00 0.00 0.00 79 1014.2
20260505021309 74 125 3.0 6.0 0.00 0.00 0.00 79 1014.2
20260505021209 74 97 2.0 6.0 0.00 0.00 0.00 79 1014.1
20260505021109 74 321 1.0 6.0 0.00 0.00 0.00 80 1014.2
20260505021010 74 288 2.0 7.0 0.00 0.00 0.00 79 1014.2
20260505020910 74 56 2.0 7.0 0.00 0.00 0.00 79 1014.2
20260505020809 74 147 2.0 10.0 0.00 0.00 0.00 79 1014.2
20260505020709 74 80 3.0 10.0 0.00 0.00 0.00 79 1014.1
20260505020608 74 131 3.0 10.0 0.00 0.00 0.00 79 1014.0
20260505020508 74 120 3.0 10.0 0.00 0.00 0.00 79 1014.0
20260505020408 74 327 2.0 10.0 0.00 0.00 0.00 79 1014.0
20260505020308 74 162 1.0 10.0 0.00 0.00 0.00 79 1014.1
20260505020207 74 314 2.0 10.0 0.00 0.00 0.00 79 1014.1
20260505020109 74 314 4.0 10.0 0.00 0.00 0.00 79 1014.1
20260505020009 74 204 4.0 10.0 0.00 0.00 0.00 79 1014.0
20260505015908 74 144 4.0 10.0 0.00 0.00 0.00 79 1014.0
20260505015808 74 179 2.0 9.0 0.00 0.00 0.00 79 1014.0
20260505015710 74 117 2.0 9.0 0.00 0.00 0.00 79 1014.1
20260505015608 74 0 3.0 9.0 0.00 0.00 0.00 79 1014.0
20260505015507 74 0 3.0 9.0 0.00 0.00 0.00 79 1014.1
20260505015409 74 319 2.0 7.0 0.00 0.00 0.00 79 1014.0
20260505015307 74 336 3.0 7.0 0.00 0.00 0.00 79 1014.0
20260505015208 74 175 3.0 7.0 0.00 0.00 0.00 79 1014.0
20260505015108 74 307 2.0 6.0 0.00 0.00 0.00 78 1014.0
20260505015010 74 133 2.0 6.0 0.00 0.00 0.00 78 1013.9
20260505014907 74 109 2.0 6.0 0.00 0.00 0.00 78 1014.0
20260505014810 74 155 2.0 6.0 0.00 0.00 0.00 78 1014.0
20260505014708 74 14 2.0 6.0 0.00 0.00 0.00 78 1014.0
20260505014607 74 124 3.0 6.0 0.00 0.00 0.00 78 1013.9
20260505014508 74 121 3.0 6.0 0.00 0.00 0.00 78 1014.0
20260505014408 74 123 3.0 6.0 0.00 0.00 0.00 78 1014.0
20260505014307 74 279 2.0 6.0 0.00 0.00 0.00 78 1013.9
20260505014209 74 116 2.0 6.0 0.00 0.00 0.00 78 1013.8
20260505014107 74 164 3.0 6.0 0.00 0.00 0.00 78 1013.8
20260505014008 74 128 2.0 6.0 0.00 0.00 0.00 78 1013.7
20260505013908 74 99 2.0 5.0 0.00 0.00 0.00 78 1013.8
20260505013808 74 99 2.0 5.0 0.00 0.00 0.00 78 1013.8
20260505013708 74 159 2.0 5.0 0.00 0.00 0.00 78 1013.7
20260505013607 74 103 2.0 5.0 0.00 0.00 0.00 78 1013.7
20260505013507 74 97 2.0 5.0 0.00 0.00 0.00 78 1013.7
20260505013408 74 92 2.0 4.0 0.00 0.00 0.00 78 1013.7
20260505013308 74 111 2.0 4.0 0.00 0.00 0.00 78 1013.7
20260505013209 74 185 2.0 5.0 0.00 0.00 0.00 78 1013.6
20260505013107 74 142 2.0 5.0 0.00 0.00 0.00 78 1013.6
20260505013009 74 135 2.0 5.0 0.00 0.00 0.00 78 1013.6
20260505012906 74 96 1.0 5.0 0.00 0.00 0.00 78 1013.6
20260505012804 74 110 1.0 6.0 0.00 0.00 0.00 78 1013.6
20260505012704 74 109 1.0 6.0 0.00 0.00 0.00 78 1013.6
20260505012603 74 109 1.0 6.0 0.00 0.00 0.00 78 1013.6
20260505012505 74 109 1.0 6.0 0.00 0.00 0.00 78 1013.7
20260505012403 74 128 2.0 6.0 0.00 0.00 0.00 78 1013.6
20260505012304 74 131 2.0 6.0 0.00 0.00 0.00 78 1013.7
20260505012203 74 140 2.0 6.0 0.00 0.00 0.00 78 1013.7
20260505012103 74 104 3.0 6.0 0.00 0.00 0.00 78 1013.7
20260505012004 74 227 3.0 6.0 0.00 0.00 0.00 78 1013.8
20260505011902 74 166 2.0 6.0 0.00 0.00 0.00 78 1013.7
20260505011802 74 149 2.0 4.0 0.00 0.00 0.00 78 1013.8
20260505011703 74 240 2.0 4.0 0.00 0.00 0.00 78 1013.8
20260505011603 74 38 1.0 4.0 0.00 0.00 0.00 78 1013.8
20260505011506 74 295 1.0 4.0 0.00 0.00 0.00 78 1013.9
20260505011403 74 295 1.0 4.0 0.00 0.00 0.00 78 1013.8
20260505011302 74 272 1.0 4.0 0.00 0.00 0.00 78 1013.7
20260505011201 74 142 1.0 4.0 0.00 0.00 0.00 78 1013.7
20260505011102 74 142 1.0 4.0 0.00 0.00 0.00 78 1013.7
20260505011004 74 151 2.0 4.0 0.00 0.00 0.00 78 1013.7
20260505010903 74 131 2.0 4.0 0.00 0.00 0.00 78 1013.7
20260505010803 75 31 1.0 3.0 0.00 0.00 0.00 78 1013.8
20260505010703 75 31 1.0 5.0 0.00 0.00 0.00 78 1013.7
20260505010603 75 31 1.0 5.0 0.00 0.00 0.00 78 1013.7
20260505010505 75 31 1.0 5.0 0.00 0.00 0.00 78 1013.7
20260505010402 75 31 2.0 5.0 0.00 0.00 0.00 78 1013.7
20260505010304 75 100 2.0 5.0 0.00 0.00 0.00 78 1013.7
20260505010203 75 13 1.0 5.0 0.00 0.00 0.00 78 1013.8
20260505010003 75 207 2.0 5.0 0.00 0.00 0.00 78 1013.7
20260505005902 75 224 2.0 5.0 0.00 0.00 0.00 78 1013.6
20260505005803 75 238 2.0 5.0 0.00 0.00 0.00 78 1013.7
20260505005703 75 180 2.0 5.0 0.00 0.00 0.00 77 1013.7
20260505005604 75 121 2.0 5.0 0.00 0.00 0.00 77 1013.6
20260505005502 75 161 2.0 5.0 0.00 0.00 0.00 77 1013.6
20260505005403 75 261 2.0 5.0 0.00 0.00 0.00 77 1013.6
20260505005235 75 128 2.0 5.0 0.00 0.00 0.00 77 1013.6
20260505005133 75 171 2.0 5.0 0.00 0.00 0.00 77 1013.5
20260505005031 75 125 3.0 5.0 0.00 0.00 0.00 77 1013.5
20260505004932 75 151 2.0 5.0 0.00 0.00 0.00 77 1013.6
20260505004831 75 193 2.0 5.0 0.00 0.00 0.00 77 1013.5
20260505004731 75 114 2.0 5.0 0.00 0.00 0.00 77 1013.5
20260505004632 75 116 2.0 5.0 0.00 0.00 0.00 77 1013.6
20260505004533 75 118 1.0 5.0 0.00 0.00 0.00 77 1013.6
20260505004432 75 117 2.0 5.0 0.00 0.00 0.00 76 1013.6
20260505004332 75 118 2.0 5.0 0.00 0.00 0.00 76 1013.5
20260505004230 75 45 2.0 3.0 0.00 0.00 0.00 77 1013.5
20260505004132 0 0.0 3.0 0.00 0.00 0.00 1013.5
20260505004032 0 0.0 3.0 0.00 0.00 0.00 1013.4
20260505003933 0 0.0 5.0 0.00 0.00 0.00 1013.5
20260505003834 76 86 2.0 5.0 0.00 0.00 0.00 76 1013.5
20260505003733 76 86 2.0 5.0 0.00 0.00 0.00 76 1013.4
20260505003632 76 86 2.0 7.0 0.00 0.00 0.00 76 1013.5
20260505003533 76 86 2.0 7.0 0.00 0.00 0.00 76 1013.6
20260505003433 76 86 2.0 7.0 0.00 0.00 0.00 76 1013.6
20260505003332 76 86 2.0 10.0 0.00 0.00 0.00 76 1013.6
20260505003232 76 0 1.0 10.0 0.00 0.00 0.00 75 1013.5
20260505003132 76 0 1.0 10.0 0.00 0.00 0.00 75 1013.5
20260505003032 76 0 1.0 10.0 0.00 0.00 0.00 75 1013.5
20260505002931 76 125 1.0 10.0 0.00 0.00 0.00 75 1013.5
20260505002830 76 133 2.0 10.0 0.00 0.00 0.00 75 1013.5
20260505002733 76 133 2.0 10.0 0.00 0.00 0.00 75 1013.4
20260505002633 76 264 2.0 10.0 0.00 0.00 0.00 75 1013.4
20260505002530 76 345 3.0 10.0 0.00 0.00 0.00 75 1013.4
20260505002432 76 178 2.0 10.0 0.00 0.00 0.00 75 1013.4
20260505002331 76 0 1.0 5.0 0.00 0.00 0.00 75 1013.5
20260505002232 76 121 2.0 5.0 0.00 0.00 0.00 75 1013.5
20260505002132 76 138 2.0 6.0 0.00 0.00 0.00 75 1013.5
20260505002031 76 326 2.0 6.0 0.00 0.00 0.00 75 1013.6
20260505001931 76 113 2.0 9.0 0.00 0.00 0.00 75 1013.5
20260505001832 76 145 2.0 9.0 0.00 0.00 0.00 75 1013.5
20260505001732 76 0 2.0 9.0 0.00 0.00 0.00 75 1013.5
20260505001631 76 298 2.0 9.0 0.00 0.00 0.00 75 1013.6
20260505001531 76 164 2.0 9.0 0.00 0.00 0.00 75 1013.5
20260505001432 76 47 1.0 9.0 0.00 0.00 0.00 75 1013.6
20260505001332 76 178 2.0 9.0 0.00 0.00 0.00 75 1013.6
20260505001229 76 149 3.0 9.0 0.00 0.00 0.00 75 1013.7
20260505001128 76 72 3.0 9.0 0.00 0.00 0.00 75 1013.7
20260505001025 76 202 4.0 9.0 0.00 0.00 0.00 75 1013.7
20260505000925 76 124 4.0 7.0 0.00 0.00 0.00 75 1013.7
20260505000823 76 134 2.0 4.0 0.00 0.00 0.00 75 1013.7
20260505000721 76 0 2.0 4.0 0.00 0.00 0.00 75 1013.8
20260505000620 76 0 2.0 6.0 0.00 0.00 0.00 75 1013.7
20260505000519 76 3 2.0 6.0 0.00 0.00 0.00 75 1013.7
20260505000417 76 309 2.0 6.0 0.00 0.00 0.00 75 1013.7
20260505000316 76 248 2.0 6.0 0.00 0.00 0.00 75 1013.6
20260505000214 76 334 2.0 6.0 0.00 0.00 0.00 75 1013.6
20260505000112 76 157 3.0 6.0 0.00 0.00 0.00 75 1013.7
20260505000012 76 192 2.0 7.0 0.00 0.00 0.00 75 1013.6
20260504235911 76 357 2.0 7.0 0.00 0.00 0.00 75 1013.6
20260504235810 76 118 3.0 7.0 0.00 0.00 0.00 75 1013.7
20260504235710 76 157 2.0 7.0 0.00 0.00 0.00 75 1013.7
20260504235608 76 113 2.0 7.0 0.00 0.00 0.00 75 1013.7
20260504235509 76 0 2.0 7.0 0.00 0.00 0.00 75 1013.7
20260504235406 76 133 2.0 7.0 0.00 0.00 0.00 75 1013.6
20260504235304 76 140 2.0 7.0 0.00 0.00 0.00 74 1013.7
20260504235204 76 30 3.0 7.0 0.00 0.00 0.00 74 1013.7
20260504235102 76 106 2.0 7.0 0.00 0.00 0.00 74 1013.7
20260504235004 76 131 2.0 6.0 0.00 0.00 0.00 75 1013.8
20260504234904 76 85 2.0 6.0 0.00 0.00 0.00 75 1013.7
20260504234804 76 85 2.0 6.0 0.00 0.00 0.00 74 1013.7
20260504234703 77 82 3.0 6.0 0.00 0.00 0.00 74 1013.8
20260504234604 77 258 3.0 6.0 0.00 0.00 0.00 75 1013.7
20260504234504 76 140 1.0 6.0 0.00 0.00 0.00 75 1013.7
20260504234404 76 140 1.0 6.0 0.00 0.00 0.00 75 1013.7
20260504234303 77 7 2.0 6.0 0.00 0.00 0.00 75 1013.9
20260504234204 77 7 2.0 6.0 0.00 0.00 0.00 75 1013.8
20260504234103 77 7 2.0 6.0 0.00 0.00 0.00 75 1013.9
20260504234004 77 7 2.0 6.0 0.00 0.00 0.00 75 1013.8
20260504233902 76 0 2.0 6.0 0.00 0.00 0.00 75 1013.8
20260504233803 77 164 2.0 6.0 0.00 0.00 0.00 74 1013.8
20260504233704 77 289 1.0 6.0 0.00 0.00 0.00 74 1013.9
20260504233602 77 7 1.0 5.0 0.00 0.00 0.00 74 1013.9
20260504233503 77 87 2.0 10.0 0.00 0.00 0.00 74 1013.9
20260504233404 77 89 2.0 10.0 0.00 0.00 0.00 74 1013.9
20260504233302 77 90 2.0 10.0 0.00 0.00 0.00 74 1013.9
20260504233203 0 128 4.0 10.0 0.00 0.00 0.00 1013.9
20260504233104 77 128 4.0 10.0 0.00 0.00 0.00 74 1013.9
20260504232932 77 128 4.0 10.0 0.00 0.00 0.00 74 1013.8
20260504232833 77 128 4.0 10.0 0.00 0.00 0.00 74 1013.8
20260504232732 77 128 4.0 10.0 0.00 0.00 0.00 74 1013.8
20260504232623 77 138 4.0 10.0 0.00 0.00 0.00 74 1013.9
20260504232522 77 100 2.0 6.0 0.00 0.00 0.00 74 1013.9
20260504232420 77 97 2.0 6.0 0.00 0.00 0.00 74 1013.9
20260504232321 77 59 2.0 6.0 0.00 0.00 0.00 74 1013.9
20260504232218 77 52 3.0 6.0 0.00 0.00 0.00 74 1014.0
20260504232110 77 25 3.0 6.0 0.00 0.00 0.00 73 1014.0
20260504232007 77 123 3.0 6.0 0.00 0.00 0.00 74 1014.1
20260504231906 77 127 3.0 6.0 0.00 0.00 0.00 73 1014.0
20260504231804 77 137 3.0 6.0 0.00 0.00 0.00 74 1014.1
20260504231703 77 65 3.0 6.0 0.00 0.00 0.00 74 1014.0
20260504231604 77 147 2.0 5.0 0.00 0.00 0.00 74 1013.9
20260504231502 77 109 2.0 5.0 0.00 0.00 0.00 74 1013.9
20260504231402 77 45 2.0 5.0 0.00 0.00 0.00 73 1013.9
20260504231304 77 124 2.0 5.0 0.00 0.00 0.00 73 1013.9
20260504231202 77 171 2.0 5.0 0.00 0.00 0.00 74 1013.9
20260504231102 77 68 2.0 5.0 0.00 0.00 0.00 74 1014.0
20260504231004 77 68 2.0 5.0 0.00 0.00 0.00 73 1014.0
20260504230903 77 0 2.0 6.0 0.00 0.00 0.00 74 1014.0
20260504230803 0 0.0 6.0 0.00 0.00 0.00 1014.0
20260504230704 0 0.0 6.0 0.00 0.00 0.00 1014.0
20260504230601 0 0.0 6.0 0.00 0.00 0.00 1014.0
20260504230502 78 27 4.0 6.0 0.00 0.00 0.00 73 1014.0
20260504230401 78 27 4.0 6.0 0.00 0.00 0.00 73 1014.0
20260504230301 78 27 4.0 6.0 0.00 0.00 0.00 73 1014.0
20260504230202 78 27 4.0 6.0 0.00 0.00 0.00 73 1014.0
20260504230101 78 27 4.0 6.0 0.00 0.00 0.00 73 1014.0
20260504230001 78 11 5.0 6.0 0.00 0.00 0.00 73 1014.0
20260504225901 78 20 2.0 5.0 0.00 0.00 0.00 73 1014.0
20260504225801 78 20 2.0 5.0 0.00 0.00 0.00 73 1014.0
20260504225701 78 20 2.0 5.0 0.00 0.00 0.00 73 1014.0
20260504225600 78 99 2.0 5.0 0.00 0.00 0.00 73 1014.0
20260504225501 78 124 2.0 5.0 0.00 0.00 0.00 73 1014.1
20260504225400 78 125 2.0 5.0 0.00 0.00 0.00 72 1014.0
20260504225300 78 121 1.0 6.0 0.00 0.00 0.00 72 1014.1
20260504225201 78 121 1.0 6.0 0.00 0.00 0.00 72 1014.1
20260504225101 78 123 2.0 6.0 0.00 0.00 0.00 72 1014.2
20260504225000 78 110 2.0 6.0 0.00 0.00 0.00 72 1014.2
20260504224859 78 161 3.0 6.0 0.00 0.00 0.00 73 1014.2
20260504224801 78 124 2.0 6.0 0.00 0.00 0.00 73 1014.2
20260504224659 78 107 2.0 6.0 0.00 0.00 0.00 73 1014.3
20260504224558 78 180 2.0 6.0 0.00 0.00 0.00 73 1014.3
20260504224457 78 75 2.0 6.0 0.00 0.00 0.00 72 1014.2
20260504224356 78 75 3.0 6.0 0.00 0.00 0.00 72 1014.2
20260504224253 78 138 3.0 5.0 0.00 0.00 0.00 72 1014.3
20260504224151 78 20 2.0 7.0 0.00 0.00 0.00 72 1014.2
20260504224049 78 35 2.0 7.0 0.00 0.00 0.00 72 1014.3
20260504223948 78 34 2.0 7.0 0.00 0.00 0.00 72 1014.3
20260504223847 78 165 2.0 12.0 0.00 0.00 0.00 72 1014.2
20260504223740 78 144 3.0 12.0 0.00 0.00 0.00 72 1014.2
20260504223634 78 168 2.0 12.0 0.00 0.00 0.00 72 1014.3
20260504223532 78 296 3.0 12.0 0.00 0.00 0.00 72 1014.3
20260504223431 78 30 4.0 12.0 0.00 0.00 0.00 72 1014.3
20260504223331 78 118 3.0 12.0 0.00 0.00 0.00 72 1014.3
20260504223232 78 197 2.0 12.0 0.00 0.00 0.00 72 1014.4
20260504223134 78 252 2.0 12.0 0.00 0.00 0.00 71 1014.3
20260504223033 78 90 3.0 12.0 0.00 0.00 0.00 72 1014.4
20260504222931 78 166 4.0 12.0 0.00 0.00 0.00 70 1014.4
20260504222833 78 151 2.0 6.0 0.00 0.00 0.00 71 1014.5
20260504222732 79 258 2.0 5.0 0.00 0.00 0.00 71 1014.4
20260504222632 79 347 2.0 5.0 0.00 0.00 0.00 72 1014.4
20260504222532 79 176 2.0 5.0 0.00 0.00 0.00 72 1014.4
20260504222431 79 171 3.0 6.0 0.00 0.00 0.00 72 1014.4
20260504222331 79 147 2.0 6.0 0.00 0.00 0.00 71 1014.5
20260504222231 79 20 1.0 6.0 0.00 0.00 0.00 71 1014.5
20260504222132 79 137 1.0 6.0 0.00 0.00 0.00 71 1014.6
20260504222032 79 83 1.0 6.0 0.00 0.00 0.00 71 1014.6
20260504221934 79 86 2.0 6.0 0.00 0.00 0.00 71 1014.6
20260504221832 78 130 2.0 6.0 0.00 0.00 0.00 71 1014.5
20260504221733 78 54 2.0 6.0 0.00 0.00 0.00 70 1014.6
20260504221633 78 131 3.0 6.0 0.00 0.00 0.00 70 1014.6
20260504221530 78 206 3.0 6.0 0.00 0.00 0.00 70 1014.6
20260504221433 78 134 3.0 7.0 0.00 0.00 0.00 71 1014.5
20260504221332 79 178 2.0 7.0 0.00 0.00 0.00 71 1014.6
20260504221232 79 89 2.0 7.0 0.00 0.00 0.00 71 1014.6
20260504221133 79 89 3.0 7.0 0.00 0.00 0.00 70 1014.6
20260504221032 79 144 3.0 7.0 0.00 0.00 0.00 70 1014.6
20260504220932 79 155 3.0 7.0 0.00 0.00 0.00 70 1014.5
20260504220832 79 99 2.0 7.0 0.00 0.00 0.00 70 1014.6
20260504220732 79 47 2.0 7.0 0.00 0.00 0.00 70 1014.5
20260504220629 79 327 3.0 7.0 0.00 0.00 0.00 71 1014.6
20260504220529 79 173 2.0 7.0 0.00 0.00 0.00 69 1014.6
20260504220427 79 138 1.0 4.0 0.00 0.00 0.00 70 1014.6
20260504220326 79 145 1.0 4.0 0.00 0.00 0.00 69 1014.6
20260504220226 79 145 2.0 5.0 0.00 0.00 0.00 69 1014.6
20260504220122 79 245 2.0 5.0 0.00 0.00 0.00 69 1014.6
20260504220011 79 138 2.0 5.0 0.00 0.00 0.00 69 1014.5
20260504215909 79 138 2.0 5.0 0.00 0.00 0.00 70 1014.5
20260504215806 79 123 2.0 5.0 0.00 0.00 0.00 70 1014.5
20260504215708 79 124 2.0 5.0 0.00 0.00 0.00 70 1014.6
20260504215603 79 124 2.0 5.0 0.00 0.00 0.00 70 1014.6
20260504215505 79 166 3.0 5.0 0.00 0.00 0.00 70 1014.6
20260504215404 79 196 2.0 5.0 0.00 0.00 0.00 70 1014.6
20260504215304 79 137 2.0 6.0 0.00 0.00 0.00 70 1014.6
20260504215203 79 192 2.0 6.0 0.00 0.00 0.00 69 1014.6
20260504215103 79 103 1.0 6.0 0.00 0.00 0.00 69 1014.6
20260504215004 79 164 2.0 6.0 0.00 0.00 0.00 69 1014.6
20260504214903 79 120 2.0 6.0 0.00 0.00 0.00 68 1014.7
20260504214802 79 27 2.0 6.0 0.00 0.00 0.00 67 1014.7
20260504214703 80 118 2.0 6.0 0.00 0.00 0.00 68 1014.6
20260504214601 80 162 2.0 6.0 0.00 0.00 0.00 68 1014.6
20260504214503 80 135 2.0 6.0 0.00 0.00 0.00 67 1014.6
20260504214404 80 135 2.0 6.0 0.00 0.00 0.00 66 1014.6
20260504214302 80 124 2.0 6.0 0.00 0.00 0.00 65 1014.6
20260504214203 80 152 2.0 6.0 0.00 0.00 0.00 67 1014.6
20260504214104 80 182 2.0 5.0 0.00 0.00 0.00 66 1014.5
20260504214003 80 85 1.0 5.0 0.00 0.00 0.00 67 1014.7
20260504213902 80 135 2.0 5.0 0.00 0.00 0.00 67 1014.6
20260504213801 80 128 2.0 5.0 0.00 0.00 0.00 66 1014.7
20260504213703 80 128 2.0 5.0 0.00 0.00 0.00 66 1014.6
20260504213602 80 120 1.0 5.0 0.00 0.00 0.00 70 1014.7
20260504213503 80 121 1.0 5.0 0.00 0.00 0.00 68 1014.8
20260504213402 80 83 1.0 5.0 0.00 0.00 0.00 67 1014.9
20260504213303 80 83 1.0 5.0 0.00 0.00 0.00 67 1014.9
20260504213203 80 83 2.0 5.0 0.00 0.00 0.00 66 1014.8
20260504213101 80 109 2.0 5.0 0.00 0.00 0.00 66 1014.8
20260504213002 80 100 2.0 5.0 0.00 0.00 0.00 65 1014.7
20260504212902 80 100 2.0 5.0 0.00 0.00 0.00 65 1014.8
20260504212802 80 48 2.0 5.0 0.00 0.00 0.00 65 1014.8
20260504212704 80 199 1.0 4.0 0.00 0.00 0.00 65 1014.8
20260504212602 80 125 2.0 4.0 0.00 0.00 0.00 67 1014.9
20260504212503 80 148 2.0 4.0 0.00 0.00 0.00 65 1014.8
20260504212403 80 104 2.0 4.0 0.00 0.00 0.00 66 1014.8
20260504212303 80 137 2.0 4.0 0.00 0.00 0.00 66 1014.8
20260504212202 80 68 2.0 4.0 0.00 0.00 0.00 65 1014.8
20260504212104 81 21 2.0 4.0 0.00 0.00 0.00 63 1014.9
20260504212003 81 31 2.0 6.0 0.00 0.00 0.00 65 1014.9
20260504211901 81 142 2.0 6.0 0.00 0.00 0.00 65 1015.0
20260504211800 81 73 2.0 6.0 0.00 0.00 0.00 63 1015.0
20260504211658 81 155 2.0 6.0 0.00 0.00 0.00 66 1015.0
20260504211557 81 159 2.0 11.0 0.00 0.00 0.00 65 1015.0
20260504211457 81 154 2.0 11.0 0.00 0.00 0.00 65 1015.1
20260504211359 81 251 1.0 11.0 0.00 0.00 0.00 65 1015.1
20260504211257 81 221 1.0 11.0 0.00 0.00 0.00 65 1015.1
20260504211158 81 223 2.0 11.0 0.00 0.00 0.00 64 1015.1
20260504211059 81 171 2.0 11.0 0.00 0.00 0.00 64 1015.1
20260504210957 82 78 2.0 11.0 0.00 0.00 0.00 63 1015.1
20260504210858 82 268 2.0 11.0 0.00 0.00 0.00 64 1015.1
20260504210758 82 252 3.0 11.0 0.00 0.00 0.00 65 1015.0
20260504210658 81 164 3.0 11.0 0.00 0.00 0.00 64 1015.1
20260504210558 81 58 2.0 4.0 0.00 0.00 0.00 65 1014.9
20260504210459 81 56 1.0 4.0 0.00 0.00 0.00 65 1015.0
20260504210400 80 27 1.0 4.0 0.00 0.00 0.00 66 1015.0
20260504210257 80 27 2.0 5.0 0.00 0.00 0.00 65 1015.0
20260504210159 80 131 1.0 5.0 0.00 0.00 0.00 66 1015.0
20260504210058 80 131 1.0 5.0 0.00 0.00 0.00 66 1015.1
20260504205959 80 131 1.0 5.0 0.00 0.00 0.00 66 1015.1
20260504205859 80 120 1.0 5.0 0.00 0.00 0.00 66 1015.1
20260504205758 80 120 1.0 5.0 0.00 0.00 0.00 66 1015.3
20260504205658 80 120 2.0 5.0 0.00 0.00 0.00 64 1015.2
20260504205557 80 121 2.0 7.0 0.00 0.00 0.00 63 1015.3
20260504205458 81 124 2.0 9.0 0.00 0.00 0.00 63 1015.4
20260504205359 81 125 2.0 9.0 0.00 0.00 0.00 63 1015.4
20260504205259 81 114 2.0 9.0 0.00 0.00 0.00 63 1015.4
20260504205158 81 123 1.0 9.0 0.00 0.00 0.00 65 1015.4
20260504205057 81 123 1.0 9.0 0.00 0.00 0.00 64 1015.3
20260504204958 81 134 1.0 9.0 0.00 0.00 0.00 63 1015.4
20260504204858 81 134 2.0 9.0 0.00 0.00 0.00 64 1015.4
20260504204758 81 127 3.0 9.0 0.00 0.00 0.00 66 1015.3
20260504204658 81 127 4.0 9.0 0.00 0.00 0.00 63 1015.3
20260504204557 82 157 3.0 9.0 0.00 0.00 0.00 63 1015.3
20260504204457 82 261 3.0 7.0 0.00 0.00 0.00 64 1015.3
20260504204356 81 272 2.0 7.0 0.00 0.00 0.00 64 1015.4
20260504204259 81 172 2.0 6.0 0.00 0.00 0.00 64 1015.4
20260504204157 81 172 2.0 6.0 0.00 0.00 0.00 65 1015.4
20260504204056 81 314 1.0 6.0 0.00 0.00 0.00 64 1015.4
20260504203958 81 314 1.0 6.0 0.00 0.00 0.00 63 1015.3
20260504203856 81 314 1.0 6.0 0.00 0.00 0.00 63 1015.3
20260504203757 81 307 2.0 6.0 0.00 0.00 0.00 64 1015.4
20260504203657 81 306 3.0 6.0 0.00 0.00 0.00 63 1015.3
20260504203558 81 331 2.0 6.0 0.00 0.00 0.00 63 1015.3
20260504203457 81 85 2.0 5.0 0.00 0.00 0.00 65 1015.4
20260504203357 81 86 2.0 5.0 0.00 0.00 0.00 64 1015.5
20260504203256 81 278 2.0 5.0 0.00 0.00 0.00 65 1015.4
20260504203156 81 0 2.0 4.0 0.00 0.00 0.00 64 1015.6
20260504203056 81 100 2.0 4.0 0.00 0.00 0.00 65 1015.6
20260504202956 81 100 2.0 4.0 0.00 0.00 0.00 64 1015.5
20260504202857 81 86 1.0 4.0 0.00 0.00 0.00 66 1015.6
20260504202758 81 110 1.0 4.0 0.00 0.00 0.00 64 1015.6
20260504202656 81 110 1.0 4.0 0.00 0.00 0.00 62 1015.6
20260504202557 81 104 1.0 4.0 0.00 0.00 0.00 64 1015.6
20260504202456 81 179 1.0 4.0 0.00 0.00 0.00 62 1015.6
20260504202357 81 262 1.0 4.0 0.00 0.00 0.00 62 1015.6
20260504202256 81 262 2.0 5.0 0.00 0.00 0.00 65 1015.5
20260504202158 81 154 2.0 5.0 0.00 0.00 0.00 65 1015.6
20260504202056 81 154 2.0 5.0 0.00 0.00 0.00 64 1015.6
20260504201957 81 121 2.0 5.0 0.00 0.00 0.00 62 1015.6
20260504201859 81 161 2.0 5.0 0.00 0.00 0.00 63 1015.7
20260504201758 81 127 2.0 5.0 0.00 0.00 0.00 63 1015.7
20260504201657 81 109 2.0 5.0 0.00 0.00 0.00 62 1015.7
20260504201557 81 186 2.0 5.0 0.00 0.00 0.00 62 1015.7
20260504201456 81 118 2.0 5.0 0.00 0.00 0.00 63 1015.8
20260504201356 81 85 2.0 5.0 0.00 0.00 0.00 62 1015.8
20260504201256 81 113 2.0 6.0 0.00 0.00 0.00 65 1015.8
20260504201157 81 133 3.0 6.0 0.00 0.00 0.00 62 1015.8
20260504201056 81 148 2.0 6.0 0.00 0.00 0.00 65 1015.9
20260504200957 81 109 1.0 6.0 0.00 0.00 0.00 61 1015.8
20260504200857 81 111 1.0 6.0 0.00 0.00 0.00 61 1015.9
20260504200757 81 111 1.0 9.0 0.00 0.00 0.00 61 1015.9
20260504200657 81 113 1.0 9.0 0.00 0.00 0.00 63 1015.9
20260504200556 81 134 1.0 9.0 0.00 0.00 0.00 62 1016.0
20260504200457 81 134 2.0 9.0 0.00 0.00 0.00 62 1016.0
20260504200356 81 135 2.0 9.0 0.00 0.00 0.00 65 1016.0
20260504200258 81 262 1.0 9.0 0.00 0.00 0.00 62 1016.1
20260504200158 81 262 1.0 9.0 0.00 0.00 0.00 65 1016.1
20260504200057 81 226 5.0 9.0 0.00 0.00 0.00 61 1016.2
20260504195958 81 299 5.0 9.0 0.00 0.00 0.00 61 1016.2
20260504195857 81 314 3.0 9.0 0.00 0.00 0.00 61 1016.1
20260504195746 81 305 2.0 6.0 0.00 0.00 0.00 61 1016.2
20260504195645 82 226 1.0 6.0 0.00 0.00 0.00 62 1016.2
20260504195544 82 145 2.0 6.0 0.00 0.00 0.00 63 1016.2
20260504195442 81 152 3.0 6.0 0.00 0.00 0.00 61 1016.2
20260504195338 82 185 3.0 6.0 0.00 0.00 0.00 62 1016.2
20260504195235 82 258 3.0 6.0 0.00 0.00 0.00 60 1016.2
20260504195135 82 237 3.0 6.0 0.00 0.00 0.00 60 1016.1
20260504195032 82 338 3.0 5.0 0.00 0.00 0.00 60 1016.1
20260504194931 81 274 2.0 4.0 0.00 0.00 0.00 60 1016.0
20260504194831 81 152 1.0 6.0 0.00 0.00 0.00 61 1016.2
20260504194732 81 213 1.0 6.0 0.00 0.00 0.00 61 1016.1
20260504194632 82 213 2.0 6.0 0.00 0.00 0.00 62 1016.1
20260504194531 81 213 2.0 6.0 0.00 0.00 0.00 61 1016.2
20260504194432 82 171 2.0 6.0 0.00 0.00 0.00 63 1016.2
20260504194331 82 172 1.0 6.0 0.00 0.00 0.00 61 1016.2
20260504194233 82 172 1.0 6.0 0.00 0.00 0.00 61 1016.3
20260504194133 81 171 2.0 6.0 0.00 0.00 0.00 62 1016.2
20260504194032 82 250 3.0 6.0 0.00 0.00 0.00 61 1016.3
20260504193931 82 290 3.0 6.0 0.00 0.00 0.00 61 1016.3
20260504193831 82 327 3.0 5.0 0.00 0.00 0.00 61 1016.4
20260504193734 82 295 3.0 5.0 0.00 0.00 0.00 63 1016.4
20260504193631 82 265 3.0 5.0 0.00 0.00 0.00 61 1016.3
20260504193531 81 195 2.0 5.0 0.00 0.00 0.00 60 1016.3
20260504193433 82 175 1.0 5.0 0.00 0.00 0.00 61 1016.3
20260504193333 82 175 1.0 6.0 0.00 0.00 0.00 61 1016.3
20260504193232 82 175 1.0 6.0 0.00 0.00 0.00 61 1016.4
20260504193109 82 175 2.0 6.0 0.00 0.00 0.00 61 1016.4
20260504193007 82 168 2.0 6.0 0.00 0.00 0.00 60 1016.4
20260504192907 82 255 2.0 6.0 0.00 0.00 0.00 60 1016.5
20260504192806 82 274 2.0 6.0 0.00 0.00 0.00 61 1016.5
20260504192703 82 252 2.0 6.0 0.00 0.00 0.00 61 1016.5
20260504192602 82 28 3.0 6.0 0.00 0.00 0.00 60 1016.5
20260504192504 82 24 3.0 6.0 0.00 0.00 0.00 58 1016.6
20260504192404 81 271 2.0 6.0 0.00 0.00 0.00 60 1016.7
20260504192304 81 113 2.0 6.0 0.00 0.00 0.00 60 1016.7
20260504192202 81 114 2.0 6.0 0.00 0.00 0.00 60 1016.6
20260504192105 81 114 2.0 6.0 0.00 0.00 0.00 60 1016.7
20260504192004 81 103 2.0 6.0 0.00 0.00 0.00 60 1016.6
20260504191903 81 199 2.0 6.0 0.00 0.00 0.00 61 1016.7
20260504191802 81 302 2.0 5.0 0.00 0.00 0.00 61 1016.6
20260504191702 81 235 2.0 5.0 0.00 0.00 0.00 60 1016.7
20260504191603 81 209 1.0 5.0 0.00 0.00 0.00 60 1016.6
20260504191503 81 217 2.0 5.0 0.00 0.00 0.00 60 1016.7
20260504191403 81 140 3.0 5.0 0.00 0.00 0.00 59 1016.8
20260504191303 82 93 2.0 5.0 0.00 0.00 0.00 60 1016.6
20260504191202 82 0 2.0 7.0 0.00 0.00 0.00 61 1016.7
20260504191103 81 38 2.0 7.0 0.00 0.00 0.00 62 1016.6
20260504191002 81 82 2.0 7.0 0.00 0.00 0.00 61 1016.7
20260504190903 81 83 1.0 7.0 0.00 0.00 0.00 61 1016.8
20260504190802 81 86 2.0 7.0 0.00 0.00 0.00 60 1016.7
20260504190703 81 157 3.0 7.0 0.00 0.00 0.00 60 1016.8
20260504190602 81 319 3.0 7.0 0.00 0.00 0.00 60 1016.8
20260504190503 81 275 3.0 7.0 0.00 0.00 0.00 61 1016.8
20260504190404 82 264 5.0 7.0 0.00 0.00 0.00 60 1016.9
20260504190303 82 271 6.0 7.0 0.00 0.00 0.00 60 1016.8
20260504190202 82 282 5.0 7.0 0.00 0.00 0.00 60 1016.7
20260504190004 82 128 2.0 7.0 0.00 0.00 0.00 59 1016.8
20260504185902 82 117 3.0 7.0 0.00 0.00 0.00 63 1016.8
20260504185802 82 104 2.0 7.0 0.00 0.00 0.00 61 1016.8
20260504185704 82 217 1.0 4.0 0.00 0.00 0.00 61 1016.8
20260504185603 81 219 2.0 4.0 0.00 0.00 0.00 64 1016.9
20260504185503 81 189 2.0 4.0 0.00 0.00 0.00 62 1016.8
20260504185403 81 107 1.0 4.0 0.00 0.00 0.00 63 1016.9
20260504185304 81 123 2.0 6.0 0.00 0.00 0.00 62 1016.8
20260504185202 80 354 2.0 6.0 0.00 0.00 0.00 62 1016.8
20260504185101 80 109 2.0 6.0 0.00 0.00 0.00 61 1016.9
20260504185003 80 114 2.0 6.0 0.00 0.00 0.00 62 1016.9
20260504184902 80 63 2.0 6.0 0.00 0.00 0.00 62 1016.9
20260504184802 80 138 1.0 6.0 0.00 0.00 0.00 61 1017.0
20260504184702 80 175 1.0 6.0 0.00 0.00 0.00 60 1016.9
20260504184602 80 175 1.0 6.0 0.00 0.00 0.00 59 1017.0
20260504184503 80 185 2.0 6.0 0.00 0.00 0.00 60 1017.0
20260504184403 80 204 3.0 6.0 0.00 0.00 0.00 61 1017.0
20260504184303 81 4 2.0 6.0 0.00 0.00 0.00 62 1017.0
20260504184202 80 18 2.0 6.0 0.00 0.00 0.00 62 1017.1
20260504184102 80 111 2.0 6.0 0.00 0.00 0.00 62 1017.0
20260504184005 80 85 2.0 6.0 0.00 0.00 0.00 61 1017.1
20260504183903 80 130 1.0 6.0 0.00 0.00 0.00 61 1017.0
20260504183802 80 130 2.0 6.0 0.00 0.00 0.00 62 1017.0
20260504183703 80 49 3.0 6.0 0.00 0.00 0.00 60 1017.0
20260504183602 80 48 3.0 6.0 0.00 0.00 0.00 60 1016.9
20260504183503 80 127 3.0 6.0 0.00 0.00 0.00 58 1017.0
20260504183403 80 151 2.0 6.0 0.00 0.00 0.00 58 1017.0
20260504183303 80 178 2.0 5.0 0.00 0.00 0.00 58 1016.9
20260504183202 80 230 3.0 5.0 0.00 0.00 0.00 58 1016.9
20260504183102 81 96 3.0 6.0 0.00 0.00 0.00 59 1016.9
20260504183004 81 123 3.0 6.0 0.00 0.00 0.00 60 1016.9
20260504182902 80 155 3.0 6.0 0.00 0.00 0.00 60 1016.9
20260504182802 80 158 2.0 6.0 0.00 0.00 0.00 60 1016.8
20260504182703 80 154 2.0 7.0 0.00 0.00 0.00 58 1016.8
20260504182604 80 131 3.0 7.0 0.00 0.00 0.00 58 1016.8
20260504182503 80 345 3.0 7.0 0.00 0.00 0.00 59 1016.8
20260504182402 80 247 2.0 7.0 0.00 0.00 0.00 58 1016.9
20260504182304 80 288 2.0 7.0 0.00 0.00 0.00 58 1017.0
20260504182203 80 61 3.0 7.0 0.00 0.00 0.00 61 1017.1
20260504182102 80 23 2.0 7.0 0.00 0.00 0.00 61 1017.1
20260504182003 80 16 2.0 7.0 0.00 0.00 0.00 61 1017.1
20260504181903 80 6 3.0 7.0 0.00 0.00 0.00 61 1017.1
20260504181802 80 159 3.0 7.0 0.00 0.00 0.00 62 1017.2
20260504181702 80 182 2.0 10.0 0.00 0.00 0.00 62 1017.2
20260504181602 80 107 3.0 10.0 0.00 0.00 0.00 61 1017.1
20260504181503 80 104 3.0 10.0 0.00 0.00 0.00 59 1017.2
20260504181402 81 104 2.0 10.0 0.00 0.00 0.00 61 1017.4
20260504181304 81 107 2.0 10.0 0.00 0.00 0.00 62 1017.3
20260504181203 81 55 3.0 10.0 0.00 0.00 0.00 62 1017.3
20260504181104 81 157 3.0 10.0 0.00 0.00 0.00 61 1017.4
20260504181002 81 286 3.0 10.0 0.00 0.00 0.00 61 1017.3
20260504180902 80 300 3.0 10.0 0.00 0.00 0.00 61 1017.3
20260504180802 80 0 2.0 10.0 0.00 0.00 0.00 63 1017.3
20260504180705 80 128 1.0 7.0 0.00 0.00 0.00 63 1017.3
20260504180602 80 133 2.0 7.0 0.00 0.00 0.00 62 1017.3
20260504180505 80 147 2.0 7.0 0.00 0.00 0.00 61 1017.3
20260504180402 80 312 2.0 7.0 0.00 0.00 0.00 61 1017.5
20260504180303 80 312 3.0 7.0 0.00 0.00 0.00 60 1017.5
20260504180203 80 224 3.0 7.0 0.00 0.00 0.00 63 1017.5
20260504180103 79 92 2.0 5.0 0.00 0.00 0.00 63 1017.5
20260504180003 79 154 2.0 5.0 0.00 0.00 0.00 61 1017.6
20260504175902 79 86 2.0 5.0 0.00 0.00 0.00 61 1017.5
20260504175802 80 228 2.0 9.0 0.00 0.00 0.00 61 1017.5
20260504175703 80 321 2.0 9.0 0.00 0.00 0.00 61 1017.5
20260504175603 80 213 3.0 9.0 0.00 0.00 0.00 62 1017.4
20260504175505 80 213 3.0 9.0 0.00 0.00 0.00 62 1017.5
20260504175404 80 213 3.0 9.0 0.00 0.00 0.00 62 1017.4
20260504175304 80 144 2.0 9.0 0.00 0.00 0.00 61 1017.5
20260504175203 80 252 2.0 9.0 0.00 0.00 0.00 62 1017.5
20260504175102 79 351 3.0 9.0 0.00 0.00 0.00 63 1017.5
20260504175003 79 288 4.0 9.0 0.00 0.00 0.00 62 1017.4
20260504174903 79 296 4.0 9.0 0.00 0.00 0.00 64 1017.5
20260504174803 79 162 3.0 6.0 0.00 0.00 0.00 62 1017.5
20260504174702 79 196 2.0 6.0 0.00 0.00 0.00 64 1017.6
20260504174602 79 120 3.0 6.0 0.00 0.00 0.00 64 1017.5
20260504174504 79 137 2.0 6.0 0.00 0.00 0.00 65 1017.7
20260504174403 79 103 2.0 4.0 0.00 0.00 0.00 63 1017.8
20260504174302 79 34 2.0 4.0 0.00 0.00 0.00 63 1017.7
20260504174203 79 116 3.0 6.0 0.00 0.00 0.00 64 1017.7
20260504174103 79 99 2.0 6.0 0.00 0.00 0.00 64 1017.8
20260504174001 79 148 2.0 6.0 0.00 0.00 0.00 65 1017.8
20260504173857 79 159 2.0 9.0 0.00 0.00 0.00 65 1017.8
20260504173758 78 8 2.0 9.0 0.00 0.00 0.00 64 1017.8
20260504173655 78 85 2.0 9.0 0.00 0.00 0.00 65 1017.7
20260504173555 78 90 2.0 9.0 0.00 0.00 0.00 64 1017.8
20260504173453 78 140 2.0 9.0 0.00 0.00 0.00 64 1017.8
20260504173353 79 173 3.0 9.0 0.00 0.00 0.00 62 1017.7
20260504173252 79 209 3.0 9.0 0.00 0.00 0.00 62 1017.7
20260504173153 79 306 3.0 9.0 0.00 0.00 0.00 63 1017.8
20260504173052 79 257 4.0 9.0 0.00 0.00 0.00 65 1017.8
20260504172952 79 272 3.0 9.0 0.00 0.00 0.00 63 1017.9
20260504172853 79 334 2.0 6.0 0.00 0.00 0.00 62 1017.9
20260504172754 79 96 2.0 6.0 0.00 0.00 0.00 62 1017.9
20260504172653 80 27 3.0 6.0 0.00 0.00 0.00 62 1018.0
20260504172552 80 203 3.0 6.0 0.00 0.00 0.00 64 1017.9
20260504172454 79 168 1.0 5.0 0.00 0.00 0.00 64 1017.9
20260504172352 79 168 2.0 5.0 0.00 0.00 0.00 64 1017.9
20260504172253 79 171 2.0 5.0 0.00 0.00 0.00 63 1018.0
20260504172153 79 268 2.0 5.0 0.00 0.00 0.00 64 1017.9
20260504172052 78 130 2.0 5.0 0.00 0.00 0.00 64 1018.0
20260504171953 78 197 2.0 5.0 0.00 0.00 0.00 62 1018.1
20260504171853 78 324 2.0 5.0 0.00 0.00 0.00 62 1018.1
20260504171754 78 331 2.0 5.0 0.00 0.00 0.00 63 1018.1
20260504171653 78 34 2.0 5.0 0.00 0.00 0.00 63 1018.0
20260504171552 78 358 2.0 5.0 0.00 0.00 0.00 62 1018.0
20260504171454 79 123 2.0 6.0 0.00 0.00 0.00 62 1018.0
20260504171353 79 185 1.0 6.0 0.00 0.00 0.00 62 1018.1
20260504171252 79 305 2.0 6.0 0.00 0.00 0.00 62 1018.1
20260504171154 79 303 3.0 6.0 0.00 0.00 0.00 62 1018.1
20260504171055 80 293 3.0 6.0 0.00 0.00 0.00 63 1018.1
20260504170952 79 252 2.0 7.0 0.00 0.00 0.00 63 1018.1
20260504170852 79 32 2.0 7.0 0.00 0.00 0.00 62 1018.2
20260504170753 79 32 2.0 7.0 0.00 0.00 0.00 62 1018.1
20260504170652 79 45 2.0 7.0 0.00 0.00 0.00 61 1018.1
20260504170553 79 0 2.0 7.0 0.00 0.00 0.00 63 1018.1
20260504170453 79 118 2.0 7.0 0.00 0.00 0.00 62 1018.1
20260504170352 78 92 3.0 7.0 0.00 0.00 0.00 62 1018.1
20260504170252 79 293 3.0 7.0 0.00 0.00 0.00 63 1018.2
20260504170152 79 140 3.0 7.0 0.00 0.00 0.00 62 1018.2
20260504160358 76 6 3.0 7.0 0.00 0.00 0.00 68 1019.0
20260504160257 76 69 2.0 7.0 0.00 0.00 0.00 68 1018.9
20260504160154 76 351 2.0 7.0 0.00 0.00 0.00 67 1019.0
20260504151148 75 21 2.0 9.0 0.00 0.00 0.00 69 1019.3
20260504151048 75 100 2.0 9.0 0.00 0.00 0.00 68 1019.2
20260504150946 75 8 3.0 9.0 0.00 0.00 0.00 69 1019.2
20260504150849 75 293 3.0 9.0 0.00 0.00 0.00 68 1019.2
20260504150748 75 99 2.0 9.0 0.00 0.00 0.00 69 1019.1
20260504150648 74 118 3.0 9.0 0.00 0.00 0.00 68 1019.2
20260504150547 74 125 4.0 9.0 0.00 0.00 0.00 68 1019.1
20260504150449 74 0 3.0 6.0 0.00 0.00 0.00 68 1019.2
20260504150348 74 27 2.0 6.0 0.00 0.00 0.00 71 1019.2
20260504150247 74 4 2.0 6.0 0.00 0.00 0.00 68 1019.2
20260504150149 74 197 2.0 6.0 0.00 0.00 0.00 68 1019.1
20260504141249 71 130 3.0 7.0 0.00 0.00 0.00 72 1019.0
20260504141146 71 130 2.0 7.0 0.00 0.00 0.00 72 1019.1
20260504141046 71 107 1.0 4.0 0.00 0.00 0.00 73 1019.1
20260504140947 71 196 1.0 4.0 0.00 0.00 0.00 74 1019.1
20260504140846 71 196 1.0 4.0 0.00 0.00 0.00 72 1019.1
20260504140748 71 138 1.0 4.0 0.00 0.00 0.00 74 1019.0
20260504140646 71 140 1.0 4.0 0.00 0.00 0.00 73 1019.2
20260504140548 71 104 2.0 4.0 0.00 0.00 0.00 74 1019.2
20260504140446 71 345 2.0 4.0 0.00 0.00 0.00 72 1019.2
20260504140346 71 87 1.0 3.0 0.00 0.00 0.00 73 1019.3
20260504140247 71 80 0.0 3.0 0.00 0.00 0.00 75 1019.2
20260504140147 71 80 0.0 3.0 0.00 0.00 0.00 74 1019.1
20260504130802 64 179 0.0 1.0 0.00 0.00 0.00 85 1019.4
20260504130702 64 179 0.0 1.0 0.00 0.00 0.00 86 1019.4
20260504130603 64 179 0.0 1.0 0.00 0.00 0.00 85 1019.4
20260504130503 63 179 0.0 1.0 0.00 0.00 0.00 85 1019.4
20260504130403 63 179 0.0 1.0 0.00 0.00 0.00 85 1019.4
20260504130302 63 179 0.0 1.0 0.00 0.00 0.00 86 1019.4
20260504130204 63 179 0.0 1.0 0.00 0.00 0.00 86 1019.3
20260504130104 63 179 0.0 1.0 0.00 0.00 0.00 86 1019.3